Location: Long Geng
(2.6167°N, 114.1333°E)
Time: 20:40:01
(UTC+00:00)

Aureole 3 - Pass Details

Date: 14 May 2021
Orbit: 380 x 1230 km, 82.5° (Epoch: 16 June)

Event Time Altitude Azimuth Distance (km) Brightness Sun altitude
Rises 21:46:42 0° 342° (NNW) 2,301 6.5 -7.0°
Reaches altitude 10° 21:48:49 10° 332° (NNW) 1,407 5.3 -6.5°
Maximum altitude 21:51:31 32° 266° (W) 684 3.3 -5.8°
Drops below altitude 10° 21:54:13 10° 201° (SSW) 1,414 5.1 -5.2°
Sets 21:56:22 0° 190° (S) 2,315 6.2 -4.7°
